Regional Weather Roundup
Issued by NWS

Home | Current Version | Previous Version | Text Only | Print | Product List | Glossary Off
Versions: 1 2 3 4 5 6 7 8 9 10 11 12 13 14 15 16 17 18 19 20 21 22 23 24 25 26 27 28 29 30 31 32 33 34 35 36 37 38 39 40 41 42 43 44 45 46 47 48 49 50

000
ASUS43 KOAX 062110
RWRNE

WEATHER ROUNDUP FOR NEBRASKA
NATIONAL WEATHER SERVICE OMAHA NE
400 PM CDT WED MAY 06 2015

NOTES: SATELLITE DATA IS BEING USED TO AUGMENT CLOUD COVER ABOVE
       12000 FEET.
       "FAIR" INDICATES FEW OR NO CLOUDS BELOW 12,000 FEET WITH NO
       SIGNIFICANT WEATHER AND/OR OBSTRUCTIONS TO VISIBILITY.

  * THESE STATIONS DO NOT REPORT WEATHER SUCH AS RAIN...SNOW OR FOG.

NEZ001>004-019>022-054>056-062200-
NEBRASKA PANHANDLE

CITY           SKY/WX    TMP DP  RH WIND       PRES   REMARKS
SCOTTSBLUFF    LGT RAIN  59  54  83 NW6       29.62F
ALLIANCE       CLOUDY    60  52  74 SE12      29.61F
CHADRON        CLOUDY    67  52  58 SW10      29.60F
KIMBALL        CLOUDY    61  53  74 N12       29.63F
SIDNEY         LGT RAIN  56  53  90 E14       29.63S
$$

NEZ057>060-069>072-079>082-062200-
SOUTHWEST NEBRASKA

CITY           SKY/WX    TMP DP  RH WIND       PRES   REMARKS
NORTH PLATTE   CLOUDY    66  56  70 SE10      29.61F
IMPERIAL       CLOUDY    62  52  69 S15       29.61S
LEXINGTON      PTSUNNY   69  59  70 S13       29.62F
MCCOOK         CLOUDY    68  54  60 SW18G29   29.61F
OGALLALA       CLOUDY    65  54  67 SE15G21   29.60F
$$

NEZ005>010-023>029-035>040-094-062200-
NORTH CENTRAL NEBRASKA

CITY           SKY/WX    TMP DP  RH WIND       PRES   REMARKS
VALENTINE      CLOUDY    64  56  75 S5        29.62F
AINSWORTH      PTSUNNY   64  58  82 SE10      29.64F
BROKEN BOW     CLOUDY    68  56  65 S14       29.62F
O`NEILL        MOSUNNY   71  59  65 S28G37    29.66F
ORD            CLOUDY    66  58  75 SE20G25   29.64F
THEDFORD       RAIN      59  57  92 S9        29.63F
$$

NEZ041-046>049-061>064-073>077-083>087-062200-
SOUTH CENTRAL NEBRASKA

CITY           SKY/WX    TMP DP  RH WIND       PRES   REMARKS
GRAND ISLAND   PTSUNNY   66  62  87 SE17      29.68F
AURORA         CLOUDY    67  64  89 SE23G29   29.68F THUNDER
HASTINGS       TSTM      65  61  87 SE18G26   29.67F
HEBRON         CLOUDY    70  60  72 S20G28    29.71F
HOLDREGE       CLOUDY    69  59  71 SE17      29.62F THUNDER
YORK           CLOUDY    68  63  83 S20G25    29.71F
$$

NEZ011>018-030>034-042>045-062200-
NORTHEAST NEBRASKA

CITY           SKY/WX    TMP DP  RH WIND       PRES   REMARKS
NORFOLK        CLOUDY    66  62  87 SE20G28   29.73F
ALBION         CLOUDY    66  60  80 S17G24    29.70F
BLAIR          CLOUDY    69  60  72 SE21G29   29.79F
COLUMBUS *     CLOUDY    66  59  77 SE17G28   29.74F
FREMONT        CLOUDY    69  60  72 SE20G26   29.77F
TEKAMAH        CLOUDY    70  63  78 S26       29.78F
WAYNE          CLOUDY    66  63  89 S18G24    29.76F
$$

NEZ050>053-065>068-078-088>093-062200-
SOUTHEAST NEBRASKA

CITY           SKY/WX    TMP DP  RH WIND       PRES   REMARKS
LINCOLN        CLOUDY    70  61  73 S22G36    29.76F
OMAHA EPPLEY   CLOUDY    71  59  65 S18G30    29.80F
BEATRICE       CLOUDY    69  62  78 SE16G23   29.76F
FALLS CITY     CLOUDY    72  61  68 SE26G38   29.83F
NEBRASKA CITY  CLOUDY    68  59  71 S15       29.83F
PLATTSMOUTH    CLOUDY    69  60  72 SE18G24   29.82F
$$

NEZ044-045-051>053-067-062200-
OMAHA AREA

CITY           SKY/WX    TMP DP  RH WIND       PRES   REMARKS
OMAHA EPPLEY   CLOUDY    71  59  65 S18G30    29.80F
BLAIR          CLOUDY    69  60  72 SE21G29   29.79F
FREMONT        CLOUDY    69  60  72 SE20G26   29.77F
MILLARD        PTSUNNY   71  61  71 SE16G26   29.79F
OFFUTT AFB     CLOUDY    70  60  70 SE22G30   29.80F
PLATTSMOUTH    CLOUDY    69  60  72 SE18G24   29.82F
WAHOO          CLOUDY    69  60  71 S25G33    29.77F
$$



USA.gov is the U.S. government's official web portal to all federal, state and local government web resources and services.